Location: Heisede
(52.2582°N, 9.8523°E)
Time: 06:20:18
(UTC+00:00)

Cosmos 1992 Rocket - Pass Details

Date: 13 January 2026
Orbit: 754 x 761 km, 74.0° (Epoch: 18 February)

Event Time Altitude Azimuth Distance (km) Brightness Sun altitude
Exits shadow 04:16:55 58° 19° (NNE) 881 4.3 -27.8°
Maximum altitude 04:17:37 66° 61° (ENE) 830 4.2 -27.7°
Drops below altitude 10° 04:22:47 10° 144° (SE) 2,285 6.9 -26.9°
Sets 04:25:10 0° 148° (SSE) 3,208 7.7 -26.5°
